Regional Weather Roundup
Issued by NWS Albany, NY

Home | Current Version | Previous Version | Graphics & Text | Print | Product List | Glossary Off
Versions: 1 2 3 4 5 6 7 8 9 10 11 12 13 14 15 16 17 18 19 20 21 22 23 24 25 26 27 28 29 30 31 32 33 34 35 36 37 38 39 40 41 42 43 44 45 46 47 48 49 50

334
ASUS41 KALY 191310
RWRALY

NEW YORK STATE HOURLY WEATHER ROUNDUP
NATIONAL WEATHER SERVICE ALBANY NY
900 AM EDT TUE SEP 19 2017

NOTE: "FAIR" INDICATES FEW OR NO CLOUDS BELOW 12,000 FEET WITH NO
SIGNIFICANT WEATHER AND/OR NO OBSTRUCTIONS TO VISIBILITY.

NYZ032-033-038>043-046>054-057>066-NYZ062>081-082-084-191400-
EAST


CITY           SKY/WX    TMP DP  RH WIND       PRES   REMARKS
ALBANY         PTSUNNY   63  61  93 NW5       30.11F
GLENS FALLS    SUNNY     65  61  87 CALM      30.11F
POUGHKEEPSIE   CLOUDY    68  62  81 N9        30.07R
NEWBURGH       CLOUDY    68  64  88 NE12      30.08F
MONTGOMERY     CLOUDY    68  64  87 N13       30.07S
WHITE PLAINS   MOSUNNY   70  64  81 NE12      30.03R
ISLIP          LGT RAIN  70  66  87 NE20G28   30.00R
NEW YORK CITY  PTSUNNY   72  66  81 NE16G24   30.00S
CENTRAL PARK   CLOUDY    72  65  78 NE10      30.04R
$$

NYZ005>009-017-018-044>046-055-056-191400-
CENTRAL


CITY           SKY/WX    TMP DP  RH WIND       PRES   REMARKS
FULTON         SUNNY     69  64  84 VRB5      30.08S
SYRACUSE       MOSUNNY   66  63  90 E8        30.07F
ROME           CLOUDY    65  63  93 SE5       30.12R
ELMIRA         FOG       61  61 100 CALM      30.09S VSB 1/4
BINGHAMTON     MOSUNNY   61  60  97 E7        30.11S
MONTICELLO     CLOUDY    64  62  93 E6        30.12S
$$

NYZ026>034-041>043-087-191400-
NORTH


CITY           SKY/WX    TMP DP  RH WIND       PRES   REMARKS
WATERTOWN      SUNNY     70  65  84 VRB5      30.07R
FORT DRUM      NOT AVBL
OGDENSBURG     FAIR      70  65  85 S6        30.08S
MASSENA        MOSUNNY   70  67  90 CALM      30.09S
SARANAC LAKE   SUNNY     65  63  93 CALM      30.13S
PLATTSBURGH    SUNNY     69  62  78 SE6       30.11S
$$

NYZ001>004-010>016-019>021-085-191400-
WEST


CITY           SKY/WX    TMP DP  RH WIND       PRES   REMARKS
NIAGARA FALLS  CLOUDY    71  64  78 S5        30.03S
BUFFALO        PTSUNNY   70  64  81 S6        30.04F
DUNKIRK        MOSUNNY   70  65  84 CALM      30.04S
JAMESTOWN      CLOUDY    62  61  96 S9        30.09S FOG
WELLSVILLE     CLOUDY    63  59  87 S3        30.14R
ROCHESTER      MOSUNNY   68  65  90 SW5       30.06R
PENN YAN       SUNNY     66  60  81 SW7       30.09S
$$

             KEY
       WCI = WIND CHILL INDEX
       VSB = VISIBILITY
       HX  = HEAT INDEX
$$




USA.gov is the U.S. government's official web portal to all federal, state and local government web resources and services.